Radar is unstable, so pay attention to the date and time in the image

Latest  Newer  Older  Last 2 hours animation  Current image  Latest image  Summary per 24h (testing)  Summary per 7d (testing) 
Cloud coverage sat images  Infrared sat images 
Real-time lightning map Aurora Forecast

All time is UTC (add 2 hours in wintertime, 3 hours in DST for Latvia local time)

2022/05/21 19:20 EVRA 211920Z 05006KT 6000 -RA BKN005 BKN010 OVC012 10/10 Q1003 NOSIG
2022/05/21 19:20 EVLA 211920Z AUTO 32002KT 9999 -RA SCT004/// BKN029/// 09/08 Q1004
2022/05/21 19:20 EVVA 211920Z AUTO 05008KT 9999 -RA OVC009 10/10 Q1005
2022/05/21 19:20 EYKA 211920Z 28009KT 250V310 9999 -RA OVC009 09/07 Q1004
2022/05/21 19:20 EYPA 211920Z VRB02KT 9999 OVC006 09/08 Q1004

2022/05/21 19:20 EYVI 211920Z 31012KT 280V350 7000 -SHRA BKN005 BKN033CB 09/09 Q1002 NOSIG
2022/05/21 07:50 EEKA 210750Z 03012KT 350V070 CAVOK 09/05 Q1008
2022/05/21 18:50 EEKE 211850Z AUTO 36004KT 330V030 9999NDV -RA NSC 10/09 Q1006
2022/05/21 18:50 EEPU 211850Z AUTO 04011KT 9999 FEW082/// SCT100/// BKN230/// 12/02 Q1006
2022/05/21 19:20 EETN 211920Z 07012KT CAVOK 09/M01 Q1009 NOSIG
2022/05/21 18:50 EETU 211850Z AUTO 04005KT 9999 NCD 13/00 Q1005
   RIGA AIRPORT     EVRA               56 55N  023 58E   10   X     T          6 LV
   LIEPAJA INTL     EVLA        26406  56 31N  021 06E    4   X                8 LV
   VENTPILS         EVVA               57 21N  021 33E    6   X                8 LV
   KAUNAS           EYKA               54 54N  023 55E   77   X     T          6 LT
   PALANGA INTL     EYPA               55 55N  021 03E   10   X                6 LT
   SIAULIAI INTL    EYSA               55 54N  023 24E  135   X     T          6 LT
   VILNIUS INTL     EYVI        26730  54 38N  025 17E  197   X     T          6 LT
   KARDLA           EEKA        26116  58 59N  022 50E    4   X                8 EE
   KURESSAARE       EEKE               58 14N  022 31E    4   X                8 EE
   PARNU            EEPU               58 25N  024 28E   14   X                8 EE
   TALLINN          EETN        26038  59 24N  024 49E   40   X     T          8 EE
   TARTU            EETU               58 19N  026 41E   67   X                8 EE

rain/snow radar image from www.meteo.lv and METAR data from weather.noaa.gov